Regional Weather Roundup
Issued by NWS Goodland, KS

Home | Current Version | Previous Version | Text Only | Print | Product List | Glossary Off
Versions: 1 2 3 4 5 6 7 8 9 10 11 12 13 14 15 16 17 18 19 20 21 22 23 24 25 26 27 28 29 30 31 32 33 34 35 36 37 38 39 40 41 42 43 44 45 46 47 48 49 50

000
ASUS43 KGLD 301659
RWRGLD

GOODLAND FORECAST AREA HOURLY WEATHER ROUNDUP
NATIONAL WEATHER SERVICE GOODLAND KS
1100 AM MDT WED JUL 30 2014

...OFFICIAL OBSERVATIONS...

CITY           SKY/WX    TMP DP  RH WIND       PRES   REMARKS
GOODLAND KS    CLOUDY    65  57  75 NE10      30.27R
HILL CITY KS   CLOUDY    69  58  67 E7        30.20S
IMPERIAL NEB   PTSUNNY   69  59  70 CALM      30.26S
MCCOOK NEB     CLOUDY    71  60  68 CALM      30.23R
AKRON CO       CLOUDY    61  58  90 E8        30.32R
BURLINGTON CO  CLOUDY    63  56  78 E13       30.29R
LIMON CO       CLOUDY    60  56  86 E9        30.33R
$$

...UNOFFICIAL OBSERVATIONS...

CITY           SKY/WX    TMP DP  RH WIND       PRES   REMARKS
COLBY KS       CLOUDY    66  63  88 NE10      30.25R
NORTON KS      SUNNY     68  59  73 NE5       30.20S
WAKEENEY KS      N/A     65  55  69 MISG        N/A
TRENTON NEB      N/A     70  32  24 CALM        N/A
$$



USA.gov is the U.S. government's official web portal to all federal, state and local government web resources and services.